Wind_Speed
12 13 12 13 12 9 8 9 7 9 8 9 9 8 8 9 9 8 7 7 9 6 5 2 2 2 2 3 6 6 5 6 7 6 5 6 6 7 6 6 6 5 7 9 7 7 6 7 8
11 11 9 10 9 8 8 9 7 7 9 8 8 7 8 7 7 6 6 7 8 6 4 4 5 6 7 7 6 6 6 8 8 8 8 6 5 5 4 4 4 4 3 3 2 3 2 3 4
11 10 9 8 8 7 8 9 9 6 7 9 9 8 9 9 6 5 4 4 5 6 5 4 4 4 5 6 6 8 8 7 6 6 6 5 5 5 5 5 4 4 4 4 4 3 3 1 1
10 9 9 8 7 5 5 7 9 8 6 6 5 6 7 8 7 6 5 4 3 3 2 3 4 4 5 5 4 5 6 6 7 8 8 7 7 6 6 5 5 4 4 4 3 3 3 2 2
8 7 7 7 8 5 4 5 6 7 7 6 5 5 4 4 4 5 5 5 5 3 2 2 3 3 3 4 5 5 5 5 6 7 8 7 7 7 7 6 6 6 5 5 3 3 3 3 3
7 5 4 4 5 4 4 4 4 5 5 5 4 4 3 3 3 2 1 1 2 2 3 3 3 4 4 5 5 5 5 5 4 4 5 6 6 6 8 8 6 6 6 4 4 1 2 3 4
6 4 3 2 3 3 4 5 5 5 2 2 3 2 1 2 2 2 1 2 1 2 2 2 2 2 3 3 4 5 5 5 6 7 8 8 8 9 8 6 5 2 0 0 1 0 0 2 3
7 4 2 2 3 5 6 6 6 6 6 3 2 0 1 2 2 3 3 4 5 4 4 4 4 5 5 5 6 5 5 6 7 6 6 6 7 8 6 4 3 3 4 3 3 4 4 4 4
9 7 6 6 5 5 7 8 7 7 7 7 6 5 4 5 4 4 6 7 8 7 6 5 5 6 6 7 7 8 8 9 9 8 8 9 9 8 6 6 6 4 6 6 5 5 5 4 4
12 11 10 10 10 9 8 8 8 8 9 9 8 7 7 8 8 7 7 8 9 9 9 10 9 8 8 7 7 8 8 8 8 9 10 10 10 10 10 8 7 6 8 9 9 9 8 8 11
16 14 14 13 13 13 12 11 10 8 9 10 10 9 10 10 10 10 9 9 9 10 11 11 9 9 8 8 9 9 10 11 11 12 12 12 12 12 10 10 11 11 11 11 11 11 12 16 17
18 17 16 15 14 14 14 12 12 12 11 12 11 11 12 12 11 12 12 12 12 12 12 12 11 10 10 10 10 12 13 15 15 15 14 14 14 13 13 12 13 14 15 16 16 17 19 18 19
20 18 18 17 16 16 15 14 13 15 15 14 12 12 13 13 14 14 14 15 15 14 14 14 13 13 13 12 12 13 14 16 18 18 17 16 14 15 17 17 18 19 20 19 19 19 19 21 22
20 20 19 19 18 16 16 14 15 17 16 16 14 15 15 15 16 16 17 16 16 16 16 16 16 15 15 14 13 14 14 16 18 19 19 19 17 18 19 20 20 20 20 19 20 23 25 24 23
20 20 19 18 17 16 16 13 17 15 15 16 16 17 18 18 18 19 18 19 18 18 18 18 18 18 18 17 17 16 15 16 18 18 18 19 19 21 21 22 23 24 26 26 26 26 26 26 28
20 20 20 19 17 16 15 10 16 16 15 17 19 20 20 21 21 21 21 21 20 20 20 20 21 20 21 21 20 19 18 18 17 19 21 22 23 24 25 26 27 29 30 31 32 30 29 29 30
24 22 20 19 20 21 18 14 21 20 17 17 20 22 23 23 23 25 24 23 23 23 23 23 23 23 23 23 23 23 22 22 21 22 23 24 27 27 29 31 32 33 34 34 34 34 34 36 37
25 24 23 23 24 25 23 19 23 24 20 20 22 25 26 26 26 28 25 25 25 25 26 27 27 26 26 26 26 27 26 26 27 27 28 29 30 31 32 33 35 36 37 36 35 36 37 38 39
28 28 27 27 30 31 29 24 24 28 22 22 25 30 31 29 33 31 29 28 29 29 29 30 30 29 28 29 28 28 29 30 31 31 32 31 32 33 35 36 38 40 40 41 40 39 39 41 42
32 32 30 31 34 37 34 31 26 28 27 25 29 31 32 33 33 35 35 32 31 33 33 32 32 31 31 31 31 31 31 31 32 33 34 34 35 35 36 37 39 41 42 42 42 42 43 44 45
36 35 35 36 36 38 40 41 32 28 31 30 31 33 34 35 37 37 38 36 35 34 35 36 36 35 35 33 33 34 33 33 34 36 37 36 36 37 37 39 41 43 45 45 45 45 46 47 47
39 38 39 38 39 40 43 53 40 34 33 34 34 37 38 37 35 37 38 38 37 38 39 38 38 37 38 38 37 36 37 36 38 39 39 39 39 40 40 42 43 45 46 46 47 48 48 49 50
41 40 40 41 41 42 49 50 50 41 37 35 37 39 42 41 39 34 37 39 38 37 38 38 37 37 39 40 39 39 40 41 41 41 41 41 42 43 44 45 45 47 48 49 50 51 52 52 53
42 43 42 42 42 50 52 48 50 45 43 39 42 40 37 40 38 34 34 36 38 38 38 38 37 38 39 40 41 42 42 42 42 43 43 44 45 45 46 47 48 50 50 51 52 53 54 54 56
42 41 42 45 47 53 55 57 49 44 49 45 42 32 36 39 39 36 35 37 37 39 40 40 39 39 40 41 40 42 44 44 44 44 45 45 46 47 49 49 50 50 51 53 55 56 56 57 59
46 44 45 49 51 53 59 59 53 48 46 50 41 29 30 34 37 39 38 38 40 41 42 42 43 43 44 44 44 44 45 45 45 46 46 47 49 50 51 51 51 51 54 55 57 58 59 61 62
47 49 47 49 53 57 61 57 57 51 49 49 49 34 31 27 31 34 38 40 41 43 43 43 44 44 42 44 45 44 45 46 47 48 49 50 51 52 52 52 52 54 56 58 59 60 61 63 65
53 53 53 55 56 59 62 63 58 55 55 53 45 38 31 30 31 34 37 39 40 42 44 45 46 44 45 43 44 46 47 49 49 50 51 52 53 53 53 54 56 57 59 60 61 63 65 66 69
60 58 59 59 60 62 67 61 57 60 58 54 42 33 27 33 37 37 38 41 42 43 44 43 41 43 47 47 47 47 48 50 52 53 53 54 55 54 55 57 59 60 62 64 65 66 68 70 71
64 66 69 69 66 63 64 59 51 51 52 44 37 35 33 31 36 40 38 42 43 45 46 45 43 43 44 46 48 50 51 52 53 54 55 55 56 56 58 59 61 63 64 65 66 69 70 71 72
Wind_Direction
93 89 81 78 70 61 59 59 55 76 89 78 72 66 69 75 80 82 84 91 98 93 90 107 107 153 184 200 201 197 182 181 184 182 174 180 169 172 157 182 179 184 200 212 221 255 267 286 304
97 93 90 88 82 68 56 59 49 68 76 82 78 80 79 75 79 75 75 81 84 94 84 79 87 101 111 116 123 143 180 191 188 189 187 192 186 172 175 184 184 181 197 217 213 237 271 286 303
97 91 85 79 87 78 52 48 55 54 73 77 68 70 77 73 70 77 75 79 76 74 83 88 93 94 98 98 101 105 114 124 131 142 162 171 161 165 180 165 165 155 159 179 171 181 184 179 306
103 94 87 70 71 68 62 47 52 55 60 69 79 67 60 70 61 64 66 81 88 98 103 94 96 109 118 120 127 129 132 136 138 142 149 157 159 167 176 175 171 177 186 192 200 206 219 223 240
118 99 88 76 68 58 42 48 31 46 52 56 58 54 47 35 63 61 58 71 91 116 141 151 148 151 143 140 143 136 138 150 153 160 167 166 176 181 183 190 196 197 209 210 220 241 257 266 290
133 109 81 57 60 48 34 20 10 30 47 54 52 56 54 46 32 64 74 88 99 101 112 136 158 175 185 190 183 183 191 195 190 192 194 196 202 208 209 214 211 217 230 232 235 252 357 2 358
159 135 97 49 18 3 350 4 360 350 358 55 69 61 37 48 29 355 264 259 279 298 295 271 243 221 202 199 200 201 202 207 210 213 218 223 227 235 238 243 241 244 293 234 234 121 104 92 70
197 186 200 279 335 336 326 328 341 344 327 314 329 178 287 272 270 276 260 258 263 271 280 279 277 270 263 257 255 254 251 252 251 252 257 263 257 256 258 261 237 203 229 225 126 125 120 96 93
216 217 238 265 283 305 313 309 319 327 325 311 286 293 276 272 271 273 267 261 263 274 279 276 276 275 275 274 274 272 268 269 276 276 262 255 256 259 245 238 241 199 167 173 175 168 175 216 269
226 229 240 259 277 291 299 296 300 311 316 296 285 283 287 274 271 270 274 275 275 271 270 275 276 274 275 276 279 284 288 285 273 261 255 251 248 246 243 232 203 194 188 188 204 218 239 268 288
233 238 245 252 267 282 293 298 291 300 294 294 293 281 285 287 279 274 272 273 272 269 273 269 264 271 278 287 288 287 282 273 268 261 256 250 246 249 238 219 228 236 242 253 260 274 287 286 291
239 245 251 258 264 273 283 287 284 290 295 297 293 287 281 283 283 282 280 276 273 269 264 259 253 260 264 272 282 285 282 277 271 266 261 245 245 240 242 248 258 265 265 271 278 282 291 293 292
243 248 255 261 265 270 275 276 276 278 285 296 297 286 279 279 277 278 278 274 273 270 265 259 254 258 264 272 278 274 274 272 270 266 257 251 248 248 254 258 264 270 279 282 284 286 294 301 299
246 250 256 261 265 268 270 273 278 277 288 292 290 290 287 281 277 274 273 273 267 263 261 260 261 265 268 273 275 272 266 269 272 266 262 256 257 262 264 271 272 274 275 277 284 289 293 294 296
246 250 253 258 264 272 275 280 273 281 284 291 291 294 296 293 285 279 276 268 266 262 259 261 264 268 271 273 276 271 263 264 266 270 270 267 269 268 269 273 275 277 283 284 289 292 292 291 293
243 247 253 262 271 275 272 271 276 281 284 292 298 297 296 294 288 279 275 272 268 265 262 262 264 267 270 272 274 274 268 262 264 266 265 265 271 276 278 277 281 284 288 286 287 291 291 292 293
244 248 257 263 268 273 273 266 272 275 283 294 299 299 296 293 290 282 277 274 270 266 262 262 263 265 267 269 273 275 272 267 262 261 260 265 267 270 275 275 276 279 281 282 282 285 286 287 291
246 254 257 264 266 270 272 272 274 275 281 293 301 299 295 293 288 282 280 275 268 264 262 262 263 266 269 272 274 276 275 272 267 262 260 261 262 263 266 270 274 276 275 274 275 279 281 284 286
252 256 260 265 269 269 271 271 277 282 288 291 298 299 299 290 278 281 277 271 267 263 261 262 263 265 268 271 275 276 275 273 272 269 268 266 268 270 271 273 275 277 278 279 279 280 281 284 287
255 259 263 265 267 270 271 270 270 280 285 291 297 301 295 286 282 274 274 271 266 263 261 262 263 264 267 270 273 277 277 275 273 271 267 264 266 268 271 273 275 276 276 276 277 280 281 284 287
256 259 262 265 268 273 276 268 269 272 280 288 299 299 295 288 283 278 271 269 269 267 263 261 261 263 267 270 271 272 276 277 274 270 268 268 268 270 273 273 273 273 275 276 278 279 282 284 288
257 261 264 268 271 273 272 273 267 274 275 286 295 292 290 286 283 279 272 266 264 261 260 262 265 267 269 271 271 272 272 274 273 271 271 271 271 272 272 272 273 274 274 276 277 279 283 286 288
259 262 266 269 272 275 270 276 274 272 273 285 293 291 281 276 280 275 269 267 265 264 264 264 267 269 270 270 269 268 270 271 272 270 268 269 270 271 271 272 273 274 274 275 277 280 284 286 289
261 264 266 269 273 272 275 278 273 282 284 291 301 292 275 264 271 273 269 265 263 263 264 267 270 272 272 270 270 268 268 269 270 269 267 267 269 271 273 274 273 273 274 275 278 282 284 287 290
260 263 267 267 266 270 276 278 279 283 291 298 303 285 277 261 265 268 268 268 268 267 268 271 273 275 275 274 272 271 270 268 267 267 267 269 270 271 272 272 273 273 273 276 280 283 286 289 291
259 260 262 267 270 271 273 277 284 287 289 296 297 289 289 274 262 264 266 266 267 268 270 272 274 274 272 271 271 271 270 268 267 266 267 268 269 270 272 273 272 272 274 278 281 284 286 289 292
258 259 261 264 267 269 276 280 282 285 287 288 293 289 281 275 268 264 265 266 267 268 268 269 272 272 275 273 271 271 271 270 266 266 267 268 270 271 272 272 271 274 277 279 283 285 287 289 293
256 258 259 262 267 271 274 278 282 285 287 285 288 289 272 264 268 267 267 267 267 268 268 270 271 271 271 273 270 269 270 268 267 267 268 268 270 271 270 270 272 275 278 281 283 285 288 291 293
258 259 263 265 265 269 274 275 281 283 282 281 282 278 269 262 264 265 266 267 269 271 272 273 275 275 275 275 273 269 268 268 269 269 269 269 270 270 270 271 274 277 280 282 284 286 289 291 292
258 260 260 259 262 267 273 273 279 275 270 273 276 278 274 265 262 260 262 265 266 268 271 275 277 276 275 274 274 272 268 268 268 268 268 269 269 269 270 273 276 279 280 282 284 286 289 290 292
Height
5862 5862 5862 5863 5866 5864 5864 5864 5864 5864 5864 5863 5863 5863 5864 5863 5864 5866 5864 5864 5865 5865 5865 5865 5865 5865 5864 5865 5866 5867 5868 5870 5872 5873 5874 5874 5876 5875 5876 5877 5878 5878 5878 5879 5880 5881 5881 5882 5882
5863 5863 5864 5864 5866 5866 5866 5865 5865 5865 5865 5864 5864 5865 5865 5865 5865 5866 5866 5866 5866 5867 5867 5867 5866 5866 5866 5867 5867 5867 5869 5870 5871 5874 5874 5874 5876 5876 5877 5878 5878 5878 5879 5880 5880 5881 5881 5880 5881
5864 5864 5865 5866 5867 5868 5867 5867 5866 5867 5866 5865 5866 5866 5866 5867 5867 5867 5867 5867 5867 5867 5868 5868 5868 5868 5869 5868 5869 5869 5870 5871 5872 5873 5874 5875 5875 5876 5877 5876 5877 5877 5878 5879 5878 5879 5879 5878 5879
5865 5866 5867 5867 5868 5869 5869 5868 5867 5867 5867 5866 5867 5867 5867 5868 5868 5868 5868 5868 5868 5869 5869 5869 5870 5870 5870 5870 5870 5871 5872 5872 5873 5873 5874 5874 5874 5876 5876 5877 5876 5877 5877 5878 5878 5878 5878 5878 5878
5866 5866 5867 5868 5869 5870 5870 5869 5869 5868 5868 5868 5868 5868 5868 5868 5869 5869 5870 5870 5870 5870 5870 5870 5871 5871 5872 5871 5871 5871 5872 5873 5873 5873 5874 5873 5874 5875 5876 5876 5876 5876 5877 5877 5877 5878 5878 5878 5878
5866 5867 5868 5869 5869 5870 5870 5870 5870 5870 5870 5870 5869 5869 5869 5869 5870 5870 5870 5871 5871 5871 5871 5871 5871 5871 5872 5872 5872 5873 5873 5873 5874 5874 5874 5874 5875 5875 5875 5876 5876 5876 5878 5876 5877 5877 5877 5878 5879
5866 5867 5868 5869 5870 5870 5870 5870 5870 5870 5871 5870 5870 5870 5870 5870 5870 5871 5871 5871 5872 5872 5872 5872 5872 5872 5873 5873 5873 5873 5873 5873 5873 5873 5873 5874 5874 5874 5874 5873 5874 5875 5877 5877 5877 5876 5877 5877 5876
5866 5867 5868 5868 5869 5870 5869 5869 5870 5869 5870 5870 5870 5870 5870 5870 5870 5871 5871 5871 5872 5872 5872 5872 5872 5872 5872 5873 5873 5874 5874 5874 5874 5874 5875 5875 5874 5874 5874 5874 5875 5876 5875 5875 5874 5874 5875 5875 5874
5865 5867 5867 5868 5869 5870 5869 5869 5869 5869 5869 5868 5868 5869 5870 5869 5870 5870 5870 5871 5871 5871 5871 5871 5872 5872 5872 5872 5872 5873 5873 5873 5874 5875 5875 5874 5874 5874 5874 5873 5873 5874 5874 5873 5872 5873 5873 5872 5872
5863 5865 5866 5866 5867 5868 5869 5869 5868 5868 5868 5867 5867 5867 5868 5868 5868 5869 5869 5870 5870 5870 5871 5870 5870 5870 5871 5871 5871 5872 5872 5873 5873 5873 5873 5874 5873 5873 5872 5872 5872 5872 5871 5871 5871 5871 5871 5871 5871
5861 5862 5864 5865 5865 5866 5866 5866 5866 5867 5866 5866 5865 5866 5866 5866 5867 5867 5868 5868 5868 5869 5869 5869 5869 5869 5869 5869 5869 5870 5870 5871 5871 5871 5872 5872 5872 5872 5871 5871 5871 5870 5870 5870 5870 5870 5870 5869 5868
5858 5860 5861 5862 5863 5863 5864 5864 5864 5864 5865 5864 5864 5864 5864 5864 5864 5865 5865 5865 5866 5866 5866 5866 5867 5866 5867 5867 5867 5867 5868 5868 5869 5869 5869 5870 5870 5870 5870 5870 5870 5870 5869 5869 5869 5868 5867 5866 5865
5855 5856 5858 5859 5860 5860 5861 5861 5862 5862 5862 5862 5862 5862 5861 5861 5861 5862 5862 5862 5863 5863 5863 5863 5864 5864 5864 5865 5865 5865 5865 5865 5866 5866 5866 5867 5867 5867 5867 5868 5867 5867 5867 5867 5866 5864 5863 5861 5859
5853 5853 5854 5855 5856 5857 5858 5859 5859 5859 5859 5859 5859 5859 5859 5858 5859 5859 5859 5859 5860 5860 5860 5860 5861 5861 5861 5862 5862 5862 5862 5862 5862 5863 5863 5864 5864 5864 5864 5864 5864 5864 5864 5863 5862 5861 5859 5857 5855
5849 5850 5851 5852 5852 5854 5854 5856 5855 5855 5855 5856 5856 5856 5856 5855 5855 5855 5855 5855 5856 5856 5857 5857 5857 5858 5858 5858 5858 5858 5858 5858 5859 5859 5860 5860 5860 5860 5860 5860 5860 5859 5859 5859 5857 5855 5853 5851 5849
5846 5846 5847 5848 5849 5850 5851 5853 5851 5852 5853 5853 5853 5853 5853 5852 5851 5851 5850 5850 5851 5852 5853 5853 5853 5853 5853 5854 5854 5854 5854 5854 5855 5855 5855 5856 5856 5856 5856 5855 5854 5854 5853 5852 5851 5849 5846 5844 5842
5841 5843 5844 5845 5845 5845 5846 5848 5846 5847 5849 5849 5849 5849 5848 5848 5848 5846 5847 5847 5847 5847 5847 5848 5848 5848 5849 5848 5848 5848 5848 5848 5849 5849 5849 5849 5850 5849 5849 5848 5847 5846 5845 5844 5843 5841 5839 5837 5835
5836 5839 5840 5841 5841 5840 5841 5844 5841 5842 5844 5845 5845 5844 5844 5844 5842 5841 5842 5842 5841 5842 5842 5843 5843 5843 5843 5843 5843 5843 5843 5842 5843 5843 5843 5843 5842 5842 5841 5841 5840 5839 5837 5835 5834 5832 5830 5828 5826
5831 5833 5835 5835 5834 5834 5836 5839 5838 5836 5840 5840 5839 5838 5838 5838 5835 5835 5836 5836 5835 5836 5836 5836 5837 5837 5837 5837 5837 5836 5836 5836 5836 5836 5836 5835 5835 5834 5834 5833 5832 5830 5829 5827 5825 5824 5821 5819 5817
5825 5826 5827 5828 5827 5826 5829 5831 5835 5833 5833 5834 5834 5832 5830 5829 5828 5827 5827 5828 5828 5828 5829 5829 5829 5830 5830 5830 5830 5830 5830 5829 5829 5828 5828 5828 5826 5826 5825 5824 5823 5822 5820 5818 5816 5814 5812 5809 5807
5818 5819 5819 5819 5820 5820 5820 5819 5827 5830 5828 5828 5828 5825 5823 5822 5820 5819 5818 5819 5819 5821 5820 5821 5821 5822 5823 5823 5823 5822 5822 5822 5821 5820 5819 5819 5819 5818 5817 5815 5814 5812 5811 5808 5807 5805 5802 5800 5798
5810 5810 5811 5812 5812 5814 5812 5801 5818 5823 5823 5823 5822 5818 5816 5814 5813 5811 5810 5810 5811 5810 5810 5811 5813 5814 5814 5815 5815 5815 5814 5814 5813 5812 5812 5811 5810 5808 5807 5806 5804 5802 5801 5799 5797 5795 5793 5790 5788
5801 5802 5803 5802 5803 5804 5800 5799 5801 5813 5816 5818 5816 5811 5807 5804 5803 5803 5801 5801 5802 5802 5803 5803 5805 5806 5806 5805 5805 5805 5805 5804 5803 5803 5802 5801 5800 5799 5797 5795 5794 5793 5791 5789 5787 5784 5782 5779 5776
5792 5793 5793 5793 5794 5794 5790 5794 5792 5800 5804 5807 5806 5799 5795 5794 5793 5793 5792 5791 5792 5793 5794 5795 5796 5796 5796 5795 5795 5795 5794 5794 5794 5793 5792 5791 5790 5789 5787 5786 5784 5782 5781 5778 5776 5774 5771 5768 5765
5783 5784 5783 5783 5783 5784 5782 5780 5788 5792 5789 5795 5793 5789 5785 5785 5784 5784 5783 5783 5784 5785 5785 5785 5786 5786 5786 5785 5785 5784 5784 5783 5783 5783 5782 5781 5780 5778 5776 5775 5773 5772 5770 5768 5765 5762 5759 5756 5753
5771 5774 5774 5771 5772 5776 5773 5771 5775 5783 5782 5779 5783 5782 5778 5776 5775 5775 5776 5776 5776 5775 5775 5775 5776 5776 5775 5775 5774 5773 5773 5773 5772 5771 5771 5770 5768 5767 5765 5764 5763 5761 5758 5756 5753 5750 5747 5744 5740
5760 5761 5766 5761 5762 5759 5764 5767 5765 5771 5774 5772 5768 5775 5772 5769 5768 5767 5767 5766 5765 5765 5765 5765 5765 5765 5765 5764 5763 5763 5762 5762 5761 5760 5759 5758 5757 5755 5754 5753 5751 5749 5747 5744 5742 5738 5734 5730 5726
5746 5751 5750 5750 5751 5751 5756 5754 5756 5759 5759 5758 5762 5761 5762 5762 5760 5758 5756 5756 5756 5755 5755 5755 5754 5754 5753 5753 5753 5753 5752 5751 5750 5749 5748 5747 5745 5744 5743 5741 5739 5737 5735 5732 5729 5725 5721 5717 5712
5733 5736 5738 5738 5738 5739 5743 5746 5752 5749 5746 5745 5750 5752 5751 5751 5750 5749 5749 5747 5745 5745 5744 5743 5743 5743 5742 5742 5742 5740 5740 5739 5738 5737 5737 5735 5734 5733 5731 5729 5727 5725 5722 5718 5714 5711 5707 5702 5696
5718 5722 5721 5719 5724 5727 5732 5735 5741 5737 5732 5736 5738 5740 5741 5741 5740 5740 5741 5738 5737 5735 5734 5734 5733 5732 5731 5730 5729 5728 5727 5727 5727 5726 5725 5723 5722 5720 5718 5716 5714 5711 5707 5703 5699 5695 5691 5686 5680